Location: Ariel
(45.9570°N, 122.5700°W)
Time: 00:46:55
(UTC-07:00)

Transit 4A - Pass Details

Date: 25 July 2019
Orbit: 864 x 981 km, 66.8° (Epoch: 25 August)

Event Time Altitude Azimuth Distance (km) Brightness Sun altitude
Rises 05:12:32 0° 292° (WNW) 3,687 10.7 -5.5°
Reaches altitude 10° 05:16:58 10° 320° (NW) 2,741 10.3 -4.9°
Maximum altitude 05:19:38 13° 345° (NNW) 2,546 10.5 -4.5°
Drops below altitude 10° 05:22:18 10° 10° (N) 2,733 11.1 -4.1°
Sets 05:26:43 0° 38° (NE) 3,665 12.7 -3.5°
